period_start,C,m1,H,J0,J1,J2,J3,J4,J5,JA,JB,JC,JD,JJ,JK,JN,#
2016-10-13 00:01:33,0.02,1.46,0.00,25.02,28.82,31.37,14.43,45.88,1026.76,2026.11,2959.92,2737.62,3069.07,599.85,597.67,21.59,0000 0000 0000 0000 000000
2016-10-13 00:06:34,0.03,1.46,0.00,25.01,28.82,31.37,14.49,45.90,1026.70,2026.12,2959.13,2737.05,3068.99,599.94,597.80,21.64,0000 0000 0000 0000 000000
2016-10-13 00:11:35,0.01,1.46,0.00,25.02,28.82,31.41,14.46,45.88,1026.54,2026.11,2958.99,2737.00,3068.76,599.70,597.50,21.69,0000 0000 0000 0000 000000
2016-10-13 00:16:36,0.03,1.46,0.00,25.01,28.82,31.39,14.52,45.90,1026.48,2026.08,2958.33,2736.81,3068.05,600.06,597.82,21.74,0000 0000 0000 0000 000000
2016-10-13 00:21:38,0.05,1.47,0.00,25.01,28.82,31.39,14.47,45.77,1026.53,2026.06,2957.05,2736.03,3067.43,600.37,598.09,21.79,0000 0000 0000 0000 000000
2016-10-13 00:26:39,0.01,1.47,0.00,25.00,28.82,31.37,14.58,45.95,1026.49,2026.07,2956.65,2735.96,3067.01,600.25,598.02,21.84,0000 0000 0000 0000 000000
2016-10-13 00:31:40,0.02,1.47,0.00,25.02,28.82,31.38,14.57,45.81,1026.47,2026.08,2956.06,2735.49,3066.96,600.45,598.22,21.89,0000 0000 0000 0000 000000
2016-10-13 00:36:42,0.03,1.47,0.00,25.00,28.82,31.38,14.55,45.92,1026.43,2026.09,2955.81,2735.03,3066.25,600.23,597.90,21.94,0000 0000 0000 0000 000000
2016-10-13 00:41:43,0.01,1.47,0.00,25.00,28.82,31.37,14.45,45.98,1026.41,2026.03,2955.05,2734.89,3065.96,600.16,597.83,21.99,0000 0000 0000 0000 000000
2016-10-13 00:46:44,0.06,1.47,0.00,25.00,28.82,31.38,14.51,45.89,1026.41,2026.03,2954.27,2734.19,3065.27,600.10,597.79,22.04,0000 0000 0000 0000 000000
2016-10-13 00:51:45,0.13,1.48,0.00,25.00,28.82,31.37,14.46,45.90,1026.41,2026.05,2951.73,2733.22,3064.13,600.09,597.83,22.09,0000 0000 0000 0000 000000
2016-10-13 00:56:47,0.26,1.49,0.00,25.00,28.82,31.36,14.40,45.85,1026.41,2026.03,2945.72,2730.80,3061.36,599.98,597.74,22.14,0000 0000 0000 0000 000000
2016-10-13 01:01:48,0.15,1.50,0.00,25.01,28.82,31.40,14.51,45.94,1026.40,2026.04,2940.89,2728.85,3059.14,600.06,597.62,22.19,0000 0000 0000 0000 000000
2016-10-13 01:06:49,0.04,1.50,0.00,25.00,28.82,31.39,14.50,46.07,1026.39,2026.06,2939.92,2728.06,3058.31,599.93,597.66,22.24,0000 0000 0000 0000 000000
2016-10-13 01:11:50,0.04,1.50,0.00,25.02,28.82,31.39,14.45,45.98,1026.39,2026.11,2938.79,2727.79,3057.84,600.13,597.82,22.29,0000 0000 0000 0000 000000
2016-10-13 01:16:52,0.29,1.51,0.00,25.01,28.82,31.38,14.52,45.92,1026.38,2026.05,2934.64,2725.10,3054.95,600.04,597.51,22.34,0000 0000 0000 0000 000000
2016-10-13 01:21:53,0.28,1.53,0.00,25.02,28.82,31.38,14.50,45.92,1026.38,2026.02,2929.23,2721.24,3050.73,600.16,597.84,22.39,0000 0000 0000 0000 000000
2016-10-13 01:26:54,0.38,1.55,0.00,25.02,28.82,31.38,14.50,45.93,1026.38,2026.02,2922.21,2716.02,3045.03,599.97,597.65,22.44,0000 0000 0000 0000 000000
2016-10-13 01:31:56,0.23,1.56,0.00,25.02,28.82,31.39,14.49,45.92,1026.38,2026.02,2918.01,2712.96,3041.67,600.13,597.76,22.49,0000 0000 0000 0000 000000
2016-10-13 01:36:57,0.17,1.57,0.00,25.02,28.82,31.37,14.47,46.02,1026.38,2026.02,2914.29,2710.25,3038.58,600.10,597.72,22.54,0000 0000 0000 0000 000000
2016-10-13 01:41:58,0.06,1.58,0.00,25.02,28.82,31.39,14.45,46.06,1026.38,2026.00,2913.04,2709.33,3037.77,599.98,597.60,22.59,0000 0000 0000 0000 000000
2016-10-13 01:47:00,0.03,1.58,0.00,25.02,28.82,31.40,14.36,45.93,1026.38,2026.00,2912.08,2708.86,3036.99,599.61,597.29,22.64,0000 0000 0000 0000 000000
2016-10-13 01:52:01,0.04,1.58,0.00,25.04,28.82,31.36,14.53,45.97,1026.38,2026.02,2911.79,2708.27,3036.48,600.09,597.78,22.69,0000 0000 0000 0000 000000
2016-10-13 01:57:02,0.01,1.58,0.00,25.06,28.82,31.38,14.51,46.13,1026.38,2026.02,2911.03,2708.00,3036.01,600.05,597.64,22.74,0000 0000 0000 0000 000000
2016-10-13 02:02:04,0.02,1.58,0.00,25.08,28.82,31.37,14.40,46.13,1026.39,2026.02,2910.54,2707.88,3035.67,599.86,597.40,22.79,0000 0000 0000 0000 000000
2016-10-13 02:07:05,0.03,1.59,0.00,25.10,28.82,31.39,14.48,46.19,1026.39,2026.01,2910.01,2707.15,3035.04,599.82,597.30,22.84,0000 0000 0000 0000 000000
2016-10-13 02:12:06,0.00,1.59,0.00,25.11,28.82,31.36,14.44,46.13,1026.39,2026.01,2909.97,2707.00,3035.00,599.76,597.25,22.89,0000 0000 0000 0000 000000
2016-10-13 02:17:07,0.02,1.59,0.00,25.12,28.82,31.36,14.50,46.13,1026.40,2026.02,2909.61,2707.00,3034.82,599.98,597.59,22.94,0000 0000 0000 0000 000000
2016-10-13 02:22:08,0.02,1.59,0.00,25.14,28.83,31.39,14.51,46.13,1026.40,2026.03,2909.10,2706.97,3034.19,599.86,597.29,22.99,0000 0000 0000 0000 000000
2016-10-13 02:27:10,0.02,1.59,0.00,25.15,28.83,31.37,14.40,46.14,1026.40,2026.02,2909.00,2706.50,3034.00,599.70,597.20,23.04,0000 0000 0000 0000 000000
2016-10-13 02:32:11,0.02,1.59,0.00,25.17,28.84,31.36,14.40,46.15,1026.40,2026.01,2908.66,2706.04,3033.81,599.54,596.97,23.09,0000 0000 0000 0000 000000
2016-10-13 02:37:13,0.02,1.59,0.00,25.17,28.85,31.37,14.51,46.20,1026.41,2026.01,2908.04,2706.00,3033.11,599.84,597.26,23.14,0000 0000 0000 0000 000000
2016-10-13 02:42:14,0.00,1.59,0.00,25.20,28.85,31.38,14.54,46.22,1026.41,2026.01,2908.00,2705.91,3033.00,600.24,597.63,23.19,0000 0000 0000 0000 000000
2016-10-13 02:47:15,0.03,1.59,0.00,25.22,28.85,31.38,14.48,46.13,1026.41,2026.03,2907.63,2705.26,3032.84,600.21,597.52,23.24,0000 0000 0000 0000 000000
2016-10-13 02:52:17,0.02,1.60,0.00,25.24,28.85,31.38,14.55,46.15,1026.39,2026.00,2907.00,2705.01,3032.07,600.25,597.37,23.29,0000 0000 0000 0000 000000
2016-10-13 02:57:18,0.04,1.60,0.00,25.25,28.85,31.36,14.40,46.10,1026.39,2026.00,2906.36,2704.67,3031.74,599.51,596.63,23.34,0000 0000 0000 0000 000000
2016-10-13 03:02:19,0.02,1.60,0.00,25.27,28.85,31.38,14.44,46.10,1026.39,2026.00,2905.94,2704.04,3031.05,600.11,597.30,23.39,0000 0000 0000 0000 000000
2016-10-13 03:07:21,0.03,1.60,0.00,25.28,28.85,31.38,14.48,46.11,1026.39,2026.00,2905.14,2703.94,3030.69,600.14,597.24,23.44,0000 0000 0000 0000 000000
2016-10-13 03:12:22,0.04,1.60,0.00,25.28,28.85,31.38,14.41,46.08,1026.39,2026.00,2904.69,2703.19,3030.03,599.98,597.15,23.49,0000 0000 0000 0000 000000
2016-10-13 03:17:23,0.02,1.60,0.00,25.30,28.86,31.38,14.47,46.24,1026.38,2026.00,2904.02,2702.99,3029.69,600.03,597.33,23.54,0000 0000 0000 0000 000000
2016-10-13 03:22:25,0.03,1.60,0.00,25.32,28.87,31.38,14.46,46.33,1026.39,2026.00,2903.71,2702.62,3029.04,600.26,597.35,23.59,0000 0000 0000 0000 000000
2016-10-13 03:27:26,0.02,1.61,0.00,25.32,28.87,31.38,14.53,46.26,1026.38,2026.00,2903.03,2702.03,3028.95,599.93,597.06,23.64,0000 0000 0000 0000 000000
2016-10-13 03:32:27,0.01,1.61,0.00,25.34,28.87,31.37,14.46,46.16,1026.39,2026.00,2902.98,2702.00,3028.35,600.13,597.25,23.69,0000 0000 0000 0000 000000
2016-10-13 03:37:28,0.02,1.61,0.00,25.36,28.87,31.37,14.54,46.19,1026.40,2026.00,2902.35,2701.85,3028.00,600.73,597.80,23.74,0000 0000 0000 0000 000000
2016-10-13 03:42:30,0.02,1.61,0.00,25.38,28.87,31.37,14.45,46.25,1026.40,2026.00,2902.01,2701.16,3027.88,599.90,596.88,23.80,0000 0000 0000 0000 000000
2016-10-13 03:47:31,0.01,1.61,0.00,25.38,28.87,31.37,14.48,46.20,1026.45,2026.00,2901.98,2701.01,3027.19,600.12,597.24,23.85,0000 0000 0000 0000 000000
2016-10-13 03:52:32,0.01,1.61,0.00,25.40,28.88,31.38,14.45,46.12,1026.51,2026.00,2901.68,2700.99,3027.00,599.87,596.91,23.90,0000 0000 0000 0000 000000
2016-10-13 03:57:34,0.03,1.61,0.00,25.42,28.90,31.39,14.45,46.14,1026.58,2026.00,2901.03,2700.69,3026.79,599.79,596.97,23.95,0000 0000 0000 0000 000000
2016-10-13 04:02:35,0.04,1.61,0.00,25.44,28.90,31.40,14.43,46.12,1026.61,2026.00,2900.50,2700.05,3026.05,599.99,596.96,24.00,0000 0000 0000 0000 000000
2016-10-13 04:07:36,0.05,1.62,0.00,25.45,28.90,31.39,14.48,46.17,1026.71,2026.00,2899.68,2699.61,3025.28,600.11,597.26,24.05,0000 0000 0000 0000 000000
2016-10-13 04:12:37,0.02,1.62,0.00,25.45,28.90,31.41,14.44,46.12,1026.70,2025.99,2899.02,2699.01,3024.86,600.12,597.09,24.10,0000 0000 0000 0000 000000
2016-10-13 04:17:39,0.02,1.62,0.00,25.47,28.91,31.39,14.43,46.09,1026.58,2025.98,2898.54,2698.93,3024.13,599.74,596.61,24.15,0000 0000 0000 0000 000000
2016-10-13 04:22:40,0.03,1.62,0.00,25.49,28.92,31.40,14.48,46.11,1026.44,2025.99,2898.03,2698.34,3024.00,600.13,596.91,24.20,0000 0000 0000 0000 000000
2016-10-13 04:27:42,0.02,1.62,0.00,25.51,28.92,31.40,14.38,46.08,1026.41,2025.98,2897.84,2698.01,3023.63,599.86,596.61,24.25,0000 0000 0000 0000 000000
2016-10-13 04:32:43,0.03,1.63,0.00,25.52,28.92,31.41,14.34,46.09,1026.43,2025.97,2897.06,2697.72,3022.99,599.85,596.57,24.30,0000 0000 0000 0000 000000
2016-10-13 04:37:44,0.05,1.63,0.00,25.54,28.93,31.42,14.50,46.12,1026.44,2025.98,2896.37,2696.95,3022.26,600.16,596.78,24.35,0000 0000 0000 0000 000000
2016-10-13 04:42:46,0.07,1.63,0.00,25.56,28.95,31.41,14.49,46.14,1026.48,2025.96,2895.01,2696.03,3021.13,600.14,596.81,24.40,0000 0000 0000 0000 000000
2016-10-13 04:47:47,0.12,1.64,0.00,25.57,28.95,31.42,14.45,46.17,1026.50,2025.94,2893.05,2694.72,3019.65,600.08,596.65,24.45,0000 0000 0000 0000 000000
2016-10-13 04:52:48,0.07,1.64,0.00,25.59,28.95,31.44,14.48,46.16,1026.45,2025.75,2891.22,2693.25,3018.03,599.85,596.52,24.50,0000 0000 0000 0000 000000
2016-10-13 04:57:49,0.20,1.65,0.00,25.62,28.97,31.44,14.32,46.02,1026.43,2025.76,2888.48,2691.41,3015.99,599.39,595.91,24.55,0000 0000 0000 0000 000000
2016-10-13 05:02:50,0.43,1.67,0.00,25.63,28.97,31.45,14.39,46.10,1026.49,2025.74,2881.24,2686.40,3010.52,599.71,596.25,24.60,0000 0000 0000 0000 000000
2016-10-13 05:07:52,0.20,1.68,0.00,25.64,28.99,31.49,14.40,46.12,1026.54,2025.48,2876.24,2683.00,3006.78,600.15,596.78,24.65,0000 0000 0000 0000 000000
2016-10-13 05:12:53,0.10,1.69,0.00,25.67,29.00,31.49,14.45,46.13,1026.57,2025.27,2873.41,2681.04,3004.50,600.26,596.73,24.70,0000 0000 0000 0000 000000
2016-10-13 05:17:54,0.03,1.69,0.00,25.69,29.01,31.50,14.35,46.11,1026.49,2025.10,2872.81,2680.10,3003.99,599.47,595.88,24.75,0000 0000 0000 0000 000000
2016-10-13 05:22:55,0.02,1.69,0.00,25.70,29.02,31.52,14.47,46.15,1026.41,2025.07,2872.07,2680.00,3003.38,600.04,596.35,24.80,0000 0000 0000 0000 000000
2016-10-13 05:27:57,0.02,1.69,0.00,25.72,29.03,31.54,14.43,46.09,1026.41,2025.04,2871.83,2679.66,3002.99,600.15,596.51,24.85,0000 0000 0000 0000 000000
2016-10-13 05:32:58,0.04,1.70,0.00,25.73,29.05,31.55,14.39,46.13,1026.41,2025.01,2871.08,2679.02,3002.28,599.91,596.23,24.90,0000 0000 0000 0000 000000
2016-10-13 05:37:59,0.01,1.70,0.00,25.75,29.06,31.54,14.38,45.99,1026.42,2025.00,2870.90,2678.88,3001.99,599.99,596.26,24.95,0000 0000 0000 0000 000000
2016-10-13 05:43:00,0.06,1.70,0.00,25.75,29.07,31.58,14.41,46.08,1026.44,2025.00,2870.11,2678.13,3001.32,599.99,596.27,25.00,0000 0000 0000 0000 000000
2016-10-13 05:48:01,0.07,1.70,0.00,25.77,29.08,31.58,14.45,46.10,1026.59,2025.00,2869.08,2677.52,3000.48,599.89,596.26,25.05,0000 0000 0000 0000 000000
2016-10-13 05:53:03,0.08,1.71,0.00,25.78,29.10,31.60,14.38,46.21,1026.76,2025.00,2867.57,2676.41,2999.18,599.62,595.99,25.10,0000 0000 0000 0000 000000
2016-10-13 05:58:04,0.07,1.71,0.00,25.79,29.11,31.61,14.41,46.20,1026.86,2025.00,2866.23,2675.42,2998.06,600.15,596.46,25.15,0000 0000 0000 0000 000000
2016-10-13 06:03:05,0.09,1.71,0.00,25.79,29.12,31.62,14.48,46.11,1026.86,2025.00,2864.76,2674.51,2996.87,600.23,596.62,25.20,0000 0000 0000 0000 000000
2016-10-13 06:08:06,0.24,1.72,0.00,25.81,29.14,31.66,14.42,46.07,1026.86,2024.98,2861.42,2672.12,2994.35,599.78,596.19,25.25,0000 0000 0000 0000 000000
2016-10-13 06:13:07,0.61,1.75,0.00,25.82,29.15,31.64,14.42,46.11,1026.87,2024.96,2851.82,2665.65,2987.29,600.27,596.57,25.30,0000 0000 0000 0000 000000
2016-10-13 06:18:09,0.24,1.77,0.00,25.84,29.16,31.67,14.37,46.08,1026.87,2024.93,2844.65,2661.30,2982.51,599.78,596.14,25.35,0000 0000 0000 0000 000000
2016-10-13 06:23:10,0.04,1.77,0.00,25.85,29.17,31.66,14.33,46.23,1026.86,2024.81,2843.11,2660.22,2981.65,599.88,596.19,25.40,0000 0000 0000 0000 000000
2016-10-13 06:28:11,-0.03,1.77,0.00,25.87,29.19,31.68,14.38,46.18,1026.87,2024.27,2842.76,2659.99,2981.02,599.78,596.09,25.45,0000 0000 0000 0000 000000
2016-10-13 06:33:12,0.01,1.77,0.00,25.88,29.20,31.71,14.39,46.27,1026.87,2024.08,2842.24,2659.87,2981.00,599.76,596.14,25.50,0000 0000 0000 0000 000000
2016-10-13 06:38:13,0.03,1.77,0.00,25.89,29.21,31.71,14.38,46.23,1026.87,2024.03,2842.00,2659.17,2980.86,600.00,596.24,25.55,0000 0000 0000 0000 000000
2016-10-13 06:43:15,0.03,1.77,0.00,25.89,29.22,31.73,14.42,46.09,1026.87,2024.01,2841.42,2659.00,2980.10,599.73,595.98,25.60,0000 0000 0000 0000 000000
2016-10-13 06:48:16,0.03,1.78,0.00,25.90,29.23,31.73,14.48,46.34,1026.87,2024.01,2840.85,2658.58,2979.84,600.11,596.23,25.65,0000 0000 0000 0000 000000
2016-10-13 06:53:17,0.04,1.78,0.00,25.91,29.25,31.73,14.43,46.13,1026.87,2024.00,2840.02,2658.01,2979.07,600.05,596.19,25.70,0000 0000 0000 0000 000000
2016-10-13 06:58:19,0.06,1.78,0.00,25.92,29.25,31.77,14.40,46.27,1026.87,2024.00,2839.16,2657.43,2978.60,600.03,596.20,25.75,0000 0000 0000 0000 000000
2016-10-13 07:03:20,0.03,1.78,0.00,25.93,29.27,31.77,14.34,46.31,1026.87,2024.00,2838.24,2656.95,2977.97,599.63,595.76,25.80,0000 0000 0000 0000 000000
2016-10-13 07:08:22,0.07,1.79,0.00,25.94,29.27,31.78,14.37,46.27,1026.87,2024.00,2837.09,2656.09,2977.08,599.49,595.78,25.85,0000 0000 0000 0000 000000
2016-10-13 07:13:23,0.14,1.79,0.00,25.95,29.29,31.79,14.44,46.38,1026.88,2023.99,2834.94,2654.68,2975.54,600.05,595.99,25.90,0000 0000 0000 0000 000000
2016-10-13 07:18:24,0.11,1.80,0.00,25.96,29.30,31.81,14.39,46.20,1026.87,2023.99,2832.76,2653.38,2973.99,599.98,596.07,25.95,0000 0000 0000 0000 000000
2016-10-13 07:23:25,0.16,1.81,0.00,25.97,29.31,31.79,14.41,46.26,1026.88,2023.99,2829.56,2651.55,2971.92,599.92,596.06,26.00,0000 0000 0000 0000 000000
2016-10-13 07:28:27,0.25,1.82,0.00,25.97,29.32,31.82,14.45,46.26,1026.88,2023.99,2825.19,2648.92,2969.01,599.91,595.99,26.05,0000 0000 0000 0000 000000
2016-10-13 07:33:28,0.11,1.83,0.00,25.97,29.32,31.84,14.36,46.18,1026.88,2023.98,2822.18,2647.12,2966.91,599.92,596.02,26.10,0000 0000 0000 0000 000000
2016-10-13 07:38:29,0.06,1.83,0.00,25.98,29.34,31.83,14.30,46.13,1026.88,2023.97,2820.87,2646.23,2966.00,599.89,595.98,26.15,0000 0000 0000 0000 000000
2016-10-13 07:43:30,0.09,1.83,0.00,25.99,29.35,31.85,14.44,46.13,1026.87,2023.96,2819.34,2645.40,2964.89,599.89,596.02,26.20,0000 0000 0000 0000 000000
2016-10-13 07:48:31,0.13,1.84,0.00,26.00,29.35,31.86,14.40,46.23,1026.89,2023.88,2817.03,2643.84,2963.23,599.80,595.96,26.25,0000 0000 0000 0000 000000
2016-10-13 07:53:33,0.10,1.85,0.00,26.01,29.37,31.88,14.43,46.31,1026.88,2023.78,2814.77,2642.35,2961.59,600.12,596.05,26.30,0000 0000 0000 0000 000000
2016-10-13 07:58:34,0.11,1.85,0.00,26.02,29.37,31.88,14.40,46.20,1026.89,2023.71,2812.38,2640.94,2959.99,600.05,596.06,26.35,0000 0000 0000 0000 000000
2016-10-13 08:03:35,0.09,1.86,0.00,26.02,29.38,31.90,14.43,46.13,1026.89,2023.46,2810.17,2639.69,2958.49,600.48,596.47,26.40,0000 0000 0000 0000 000000
2016-10-13 08:08:37,0.05,1.86,0.00,26.02,29.40,31.91,14.51,46.27,1026.93,2023.22,2808.61,2638.73,2957.51,600.32,596.34,26.45,0000 0000 0000 0000 000000
2016-10-13 08:13:38,0.28,1.87,0.00,26.04,29.40,31.93,14.42,46.23,1027.00,2023.15,2804.57,2635.95,2954.44,599.65,595.64,26.50,0000 0000 0000 0000 000000
2016-10-13 08:18:39,0.56,1.89,0.00,26.03,29.40,31.93,14.45,46.31,1027.05,2023.10,2795.66,2629.60,2947.53,600.06,596.06,26.55,0000 0000 0000 0000 000000
2016-10-13 08:23:41,0.33,1.92,0.00,26.03,29.42,31.94,14.42,46.17,1027.06,2023.09,2788.91,2624.79,2942.35,600.11,596.24,26.60,0000 0000 0000 0000 000000
2016-10-13 08:28:42,0.09,1.92,0.00,26.04,29.42,31.94,14.42,46.23,1027.21,2023.03,2786.50,2623.09,2940.57,600.11,596.19,26.65,0000 0000 0000 0000 000000
2016-10-13 08:33:44,0.05,1.93,0.00,26.04,29.43,31.93,14.49,46.34,1027.24,2023.03,2785.42,2622.55,2939.79,600.16,596.32,26.70,0000 0000 0000 0000 000000
2016-10-13 08:38:45,0.03,1.93,0.00,26.05,29.45,31.95,14.42,46.21,1027.27,2023.01,2784.74,2622.01,2939.04,599.82,595.97,26.76,0000 0000 0000 0000 000000
2016-10-13 08:43:46,0.01,1.93,0.00,26.05,29.45,31.94,14.46,46.29,1027.29,2023.02,2784.04,2621.96,2938.98,599.94,596.06,26.81,0000 0000 0000 0000 000000
2016-10-13 08:48:48,0.04,1.93,0.00,26.06,29.46,31.97,14.47,46.25,1027.27,2023.00,2783.96,2621.28,2938.46,600.66,596.81,26.86,0000 0000 0000 0000 000000
2016-10-13 08:53:49,0.02,1.93,0.00,26.05,29.47,31.99,14.38,46.25,1027.21,2023.00,2783.24,2621.01,2938.01,599.77,595.95,26.91,0000 0000 0000 0000 000000
2016-10-13 08:58:51,0.00,1.93,0.00,26.02,29.47,31.96,14.40,46.21,1027.12,2023.00,2782.99,2620.97,2937.98,600.06,596.21,26.96,0000 0000 0000 0000 000000
2016-10-13 09:03:52,0.02,1.93,0.00,25.99,29.47,31.98,14.42,46.22,1027.11,2023.00,2782.66,2620.79,2937.85,600.27,596.51,27.01,0000 0000 0000 0000 000000
2016-10-13 09:08:53,0.04,1.94,0.00,25.96,29.49,32.00,14.46,46.20,1027.12,2023.00,2782.05,2620.12,2937.15,600.05,596.16,27.06,0000 0000 0000 0000 000000
2016-10-13 09:13:54,0.00,1.94,0.00,25.95,29.50,32.02,14.42,46.31,1027.02,2022.99,2781.99,2620.00,2937.00,599.84,596.05,27.11,0000 0000 0000 0000 000000
2016-10-13 09:18:56,0.00,1.94,0.00,25.94,29.50,32.02,14.40,46.25,1027.05,2022.99,2781.86,2620.00,2937.00,599.95,596.13,27.16,0000 0000 0000 0000 000000
2016-10-13 09:23:57,0.02,1.94,0.00,25.90,29.50,32.02,14.50,46.32,1027.06,2022.99,2781.16,2619.96,2936.89,600.03,596.31,27.21,0000 0000 0000 0000 000000
2016-10-13 09:28:58,0.01,1.94,0.00,25.87,29.50,32.01,14.35,46.33,1027.07,2022.99,2781.01,2619.90,2936.51,599.91,596.32,27.26,0000 0000 0000 0000 000000
2016-10-13 09:33:59,0.01,1.94,0.00,25.87,29.50,32.00,14.40,46.23,1027.02,2022.99,2781.00,2619.57,2936.09,599.97,596.37,27.31,0000 0000 0000 0000 000000
2016-10-13 09:39:01,0.01,1.94,0.00,25.85,29.50,32.00,14.40,46.16,1026.94,2022.99,2780.95,2619.11,2936.01,599.86,596.24,27.36,0000 0000 0000 0000 000000
2016-10-13 09:44:02,0.00,1.94,0.00,25.82,29.50,32.03,14.55,46.27,1026.91,2022.99,2780.80,2619.03,2936.00,600.47,596.92,27.41,0000 0000 0000 0000 000000
2016-10-13 09:49:03,0.01,1.94,0.00,25.80,29.50,32.00,14.44,46.14,1026.89,2022.99,2780.50,2619.01,2936.00,599.78,596.18,27.46,0000 0000 0000 0000 000000
2016-10-13 09:54:04,0.00,1.94,0.00,25.80,29.50,32.00,14.33,46.20,1026.89,2022.99,2780.09,2619.00,2935.99,599.37,595.79,27.51,0000 0000 0000 0000 000000
2016-10-13 09:59:06,0.00,1.94,0.00,25.79,29.49,31.98,14.51,46.26,1026.88,2022.99,2780.00,2619.00,2935.96,600.36,596.70,27.56,0000 0000 0000 0000 000000
2016-10-13 10:04:07,0.04,1.94,0.00,25.76,29.47,32.00,14.44,46.33,1026.89,2022.99,2779.51,2618.79,2935.45,599.95,596.47,27.61,0000 0000 0000 0000 000000
2016-10-13 10:09:08,0.14,1.95,0.00,25.75,29.47,32.00,14.42,46.17,1026.89,2022.99,2776.55,2617.50,2934.03,599.77,596.38,27.66,0000 0000 0000 0000 000000
2016-10-13 10:14:10,0.04,1.95,0.00,25.75,29.47,31.99,14.48,46.34,1026.90,2022.99,2774.97,2616.99,2933.05,600.12,596.64,27.71,0000 0000 0000 0000 000000
2016-10-13 10:19:11,-0.00,1.95,0.00,25.74,29.47,32.00,14.46,46.19,1026.93,2022.99,2774.83,2616.98,2933.01,600.06,596.61,27.76,0000 0000 0000 0000 000000
2016-10-13 10:24:12,0.00,1.95,0.00,25.72,29.45,32.00,14.41,46.34,1026.89,2022.99,2774.68,2616.98,2933.00,599.69,596.25,27.81,0000 0000 0000 0000 000000
2016-10-13 10:29:13,0.01,1.95,0.00,25.72,29.45,31.98,14.50,46.33,1026.89,2022.99,2774.31,2616.97,2933.00,600.36,596.91,27.86,0000 0000 0000 0000 000000
2016-10-13 10:34:15,0.00,1.96,0.00,25.72,29.45,31.96,14.47,46.27,1026.90,2022.99,2774.17,2616.94,2933.00,600.04,596.61,27.91,0000 0000 0000 0000 000000
2016-10-13 10:39:16,0.01,1.96,0.00,25.69,29.43,31.95,14.41,46.35,1026.90,2023.01,2774.06,2616.88,2933.00,599.57,596.20,27.96,0000 0000 0000 0000 000000
2016-10-13 10:44:17,0.00,1.96,0.00,25.67,29.42,31.96,14.45,46.27,1026.89,2023.00,2774.01,2616.80,2932.99,599.80,596.45,28.01,0000 0000 0000 0000 000000
2016-10-13 10:49:18,0.00,1.96,0.00,25.67,29.42,31.95,14.45,46.33,1026.88,2023.01,2774.00,2616.56,2932.97,599.80,596.53,28.06,0000 0000 0000 0000 000000
2016-10-13 10:54:19,0.00,1.96,0.00,25.65,29.40,31.92,14.41,46.18,1026.88,2023.01,2774.00,2616.53,2932.98,599.67,596.38,28.11,0000 0000 0000 0000 000000
2016-10-13 10:59:21,0.01,1.96,0.00,25.63,29.40,31.90,14.47,46.23,1026.87,2023.02,2774.00,2616.40,2932.97,599.96,596.61,28.16,0000 0000 0000 0000 000000
2016-10-13 11:04:22,0.01,1.96,0.00,25.62,29.40,31.93,14.44,46.15,1026.87,2023.03,2773.90,2616.16,2932.84,599.61,596.43,28.21,0000 0000 0000 0000 000000
2016-10-13 11:09:23,0.05,1.96,0.00,25.62,29.37,31.91,14.50,46.38,1026.87,2023.15,2773.08,2616.02,2932.15,599.94,596.68,28.26,0000 0000 0000 0000 000000
2016-10-13 11:14:25,0.01,1.96,0.00,25.60,29.37,31.91,14.41,46.20,1026.87,2023.15,2772.23,2616.00,2932.00,600.00,596.76,28.31,0000 0000 0000 0000 000000
2016-10-13 11:19:26,0.01,1.96,0.00,25.60,29.36,31.94,14.37,46.21,1026.87,2023.26,2772.00,2615.96,2931.99,599.43,596.32,28.36,0000 0000 0000 0000 000000
2016-10-13 11:24:27,0.01,1.96,0.00,25.58,29.35,31.93,14.50,46.27,1026.87,2023.19,2772.00,2615.77,2931.92,599.90,596.57,28.41,0000 0000 0000 0000 000000
2016-10-13 11:29:29,0.05,1.96,0.00,25.57,29.35,31.88,14.47,46.31,1026.87,2023.31,2771.74,2615.27,2931.48,599.76,596.67,28.46,0000 0000 0000 0000 000000
2016-10-13 11:34:30,0.03,1.97,0.00,25.56,29.33,31.86,14.46,46.15,1026.85,2023.43,2771.02,2615.02,2931.04,600.15,597.02,28.51,0000 0000 0000 0000 000000
2016-10-13 11:39:31,0.10,1.97,0.00,25.55,29.32,31.82,14.39,46.25,1026.83,2023.51,2769.86,2614.44,2930.38,599.79,596.63,28.56,0000 0000 0000 0000 000000
2016-10-13 11:44:33,0.14,1.97,0.00,25.55,29.31,31.87,14.50,46.29,1026.77,2023.72,2767.69,2613.06,2928.78,599.96,596.88,28.61,0000 0000 0000 0000 000000
2016-10-13 11:49:34,0.27,1.99,0.00,25.53,29.30,31.86,14.42,46.24,1026.73,2023.85,2763.62,2610.62,2926.15,600.03,596.90,28.66,0000 0000 0000 0000 000000
2016-10-13 11:54:36,0.25,2.00,0.00,25.52,29.30,31.84,14.53,46.10,1026.58,2023.85,2758.52,2607.65,2922.88,600.48,597.27,28.71,0000 0000 0000 0000 000000
2016-10-13 11:59:38,0.30,2.02,0.00,25.51,29.27,31.82,14.48,46.31,1026.58,2023.89,2752.95,2604.50,2919.41,599.97,596.74,28.76,0000 0000 0000 0000 000000
2016-10-13 12:04:39,0.27,2.03,0.00,25.50,29.27,31.79,14.48,46.53,1026.55,2023.94,2747.77,2601.46,2916.09,599.92,596.73,28.81,0000 0000 0000 0000 000000
2016-10-13 12:09:40,0.23,2.04,0.00,25.48,29.25,31.84,14.36,46.27,1026.48,2023.93,2743.18,2598.85,2913.20,599.30,596.12,28.86,0000 0000 0000 0000 000000
2016-10-13 12:14:42,0.19,2.05,0.00,25.47,29.25,31.78,14.45,46.69,1026.44,2023.97,2739.47,2596.76,2910.91,600.08,596.74,28.91,0000 0000 0000 0000 000000
2016-10-13 12:19:43,0.24,2.06,0.00,25.47,29.23,31.76,14.53,46.74,1026.41,2023.99,2734.95,2594.27,2908.10,599.96,596.86,28.96,0000 0000 0000 0000 000000
2016-10-13 12:24:45,0.20,2.07,0.00,25.45,29.22,31.76,14.39,46.31,1026.42,2023.99,2731.01,2591.96,2905.62,600.10,596.94,29.01,0000 0000 0000 0000 000000
2016-10-13 12:29:46,0.12,2.08,0.00,25.44,29.22,31.76,14.52,46.38,1026.40,2023.99,2728.37,2590.40,2903.91,599.76,596.61,29.06,0000 0000 0000 0000 000000
2016-10-13 12:34:48,0.15,2.09,0.00,25.44,29.20,31.75,14.41,46.20,1026.40,2023.99,2725.72,2588.80,2902.18,599.81,596.62,29.11,0000 0000 0000 0000 000000
2016-10-13 12:39:49,0.13,2.10,0.00,25.42,29.20,31.72,14.56,46.42,1026.39,2023.99,2723.11,2587.25,2900.48,600.53,597.41,29.16,0000 0000 0000 0000 000000
2016-10-13 12:44:50,0.16,2.10,0.00,25.40,29.18,31.75,14.51,46.35,1026.39,2023.99,2720.43,2585.68,2898.74,599.82,596.73,29.21,0000 0000 0000 0000 000000
2016-10-13 12:49:51,0.20,2.11,0.00,25.40,29.17,31.73,14.50,46.33,1026.39,2023.99,2716.56,2583.54,2896.34,600.22,597.05,29.26,0000 0000 0000 0000 000000
2016-10-13 12:54:52,0.16,2.12,0.00,25.42,29.16,31.72,14.43,46.38,1026.38,2023.99,2713.38,2581.74,2894.42,600.05,596.91,29.31,0000 0000 0000 0000 000000